User: anonymous   Login
Location: Bratsk-Energetik
(56.3300°N, 101.7600°E)
Time: 00:54:07
(UTC+08:00)
Language:

ISS - Orbit

View from above orbital plane
View from above orbital plane
View from above satellite
View from above satellite

Ground track
Ground track

The orbit data is extracted from the following two-line orbital elements,

1 25544U 98067A   19292.55111439  .00016717  00000-0  10270-3 0  9032
2 25544  51.6381 104.6034 0006846 167.1054 193.0273 15.50168292 34542
Epoch (UTC): 19 October 2019 13:13:36
Eccentricity: 0.0006846
inclination: 51.6381°
perigee height: 411 km
apogee height: 421 km
right ascension of ascending node: 104.6034°
argument of perigee: 167.1054°
revolutions per day: 15.50168292
mean anomaly at epoch: 193.0273°
orbit number at epoch: 3454

The dashed part of the orbit path shows where the satellite is in the earth's shadow,  

DLR